Regional Weather Roundup
Issued by NWS

Home | Current Version | Previous Version | Graphics & Text | Print | Product List | Glossary On
Versions: 1 2 3 4 5 6 7 8 9 10 11 12 13 14 15 16 17 18 19 20 21 22 23 24 25 26 27 28 29 30 31 32 33 34 35 36 37 38 39 40 41 42 43 44 45 46 47 48 49 50
000
ASUS45 KTFX 081710
RWRMT
MONTANA REGIONAL WEATHER ROUNDUP
NATIONAL WEATHER SERVICE GREAT FALLS MT
1000 AM MST MON FEB 08 2016

NOTE: "FAIR" INDICATES FEW OR NO CLOUDS BELOW 12000 FEET WITH NO
SIGNIFICANT WEATHER AND/OR OBSTRUCTIONS TO VISIBILITY.

MTZ001>007-043-081800-
WEST OF THE DIVIDE

CITY           SKY/WX    TMP DP  RH WIND       PRES   REMARKS
KALISPELL      CLOUDY    33  28  81 CALM      30.61S
MISSOULA       CLOUDY    33  26  75 CALM      30.65S
BUTTE          CLOUDY    30  23  75 CALM      30.59S
MULLAN PASS    PTSUNNY   33  27  78 S7        30.56S WCI  27
ANACONDA         N/A     41  23  48 CALM      30.59S
DEER LODGE       N/A     36  27  69 CALM      30.61S
HAMILTON         N/A     36  27  69 CALM      30.61F
LIBBY            N/A     34  27  75 CALM      30.65S
PLAINS           N/A     33  27  79 CALM      30.59F
$$

MTZ008-052>055-081800-
SOUTHWEST MONTANA

CITY           SKY/WX    TMP DP  RH WIND       PRES   REMARKS
BOZEMAN        CLOUDY    30  24  78 CALM      30.58S
DILLON         CLOUDY    28  21  75 CALM      30.59S
ENNIS          SUNNY     32  23  69 S12       30.66F WCI  23
$$

MTZ009-010-012-014-046-048-049-054-081800-
EAST SLOPES AND CENTRAL MONTANA

CITY           SKY/WX    TMP DP  RH WIND       PRES   REMARKS
CUT BANK       PTSUNNY   47  29  49 W20       30.37
GREAT FALLS    CLOUDY    45  25  45 SW14      30.41S
MALMSTROM AFB  CLOUDY    46  26  46 SW17      30.42S
HELENA         CLOUDY    32  22  66 NW5       30.54F
CHOTEAU          N/A     52  30  43 W14G21    30.40R
CONRAD           N/A     50  34  54 W6        30.36R
$$

MTZ011-013-016-021-045-047-050-051-081800-
NORTH CENTRAL MONTANA

CITY           SKY/WX    TMP DP  RH WIND       PRES   REMARKS
HAVRE          SUNNY     39  27  62 W14       30.38R WCI  31
LEWISTOWN      SUNNY     37  26  64 W9        30.41  WCI  30
N BAR RANCH      N/A     46  23  39 NW18G31   30.38S
CHINOOK          N/A     28  19  69 CALM      30.39F
$$

MTZ017>020-022>027-061-062-081800-
NORTHEAST MONTANA

CITY           SKY/WX    TMP DP  RH WIND       PRES   REMARKS
GLASGOW        CLOUDY    28  18  66 W3        30.39F
JORDAN           N/A     31  19  61 W5        30.39S
SIDNEY         CLOUDY    30  16  55 W15       30.38F WCI  19
WOLF POINT     CLOUDY    29  20  69 SW6       30.40F WCI  23
MALTA            N/A    N/A N/A N/A MISG      30.33
PLENTYWOOD       N/A     25  18  74 W12       30.35F WCI  14
POPLAR           N/A     27  19  74 W7        30.40F WCI  19
SCOBEY           N/A     26  12  55 CALM      30.32F
$$

MTZ028>42-056>058-081800-
SOUTHCENTRAL AND SOUTHEAST MONTANA

CITY           SKY/WX    TMP DP  RH WIND       PRES   REMARKS
BAKER          CLOUDY    28  15  58 NW13      30.38S WCI  17
BILLINGS       CLOUDY    36  17  46 SW15      30.42F WCI  27
LIVINGSTON     CLOUDY    50  25  37 W29G37    30.49F
MILES CITY     CLOUDY    32  17  54 SW5       30.40F
FORSYTH          N/A     28  16  59 W5        30.41F
LAUREL           N/A     35  16  46 S12       30.37F WCI  27
ROUNDUP          N/A     39  21  48 S5        30.27F
$$

REGIONAL REPORTS...DAKOTAS

CITY           SKY/WX    TMP DP  RH WIND       PRES   REMARKS
WILLISTON      CLOUDY    30  18  60 NW10      30.35F WCI  21
MINOT          MOSUNNY   29  11  47 NW21G31   30.28S WCI  16
DICKINSON      CLOUDY    27  16  63 NW18      30.30S WCI  14
BEACH          CLOUDY    30  16  55 W17       30.38F WCI  18
CROSBY           N/A     25  21  86 NW10      30.36F WCI  15
TIOGA            N/A     23  21  93 NW14      30.36F WCI  11
WATFORD CITY     N/A     27  18  69 NW12      30.34F WCI  16
BISMARCK       CLOUDY    32  15  49 NW21G31   30.29S WCI  20
GRAND FORKS    SNOW      14   9  80 N26G33    30.20S VSB 1/2 WCI  -6
FARGO          SNOW      15   9  76 N30G38    30.18S VSB 1/2 WCI  -5
BUFFALO SD       N/A     33  13  43 NW21      30.29S WCI  21
RAPID CITY     CLOUDY    37   6  27 NW26G37   30.33S WCI  25
$$

REGIONAL REPORTS...WYOMING/IDAHO/WASHINGTON

CITY           SKY/WX    TMP DP  RH WIND       PRES   REMARKS
GILLETTE       CLOUDY    31  11  43 W7        30.40R WCI  24
SHERIDAN       PTSUNNY   41  18  38 NE3       30.40S
BUFFALO WY     CLOUDY    38  22  52 N14G23    30.39S WCI  30
CODY           CLOUDY    37  19  48 CALM      30.45S
YELLOWSTONE LA   N/A     20  13  74 CALM      30.64R
IDAHO FALLS    CLOUDY    23  21  92 CALM      30.74S FOG
SALMON         CLOUDY    27  19  74 CALM      30.73F
BOISE          SUNNY     36  30  79 SE3       30.71R
SPOKANE        PTSUNNY   34  29  82 NE8       30.61R WCI  27
$$

REGIONAL REPORTS...ALBERTA

CITY           SKY/WX    TMP DP  RH WIND       PRES   REMARKS
EDMONTON       PTSUNNY   32  19  59 SW7       30.26F WCI  26
CALGARY        MOSUNNY   48  23  37 W13G22    30.29R
LETHBRIDGE     PTSUNNY   48  28  46 W21G32    30.33F
MEDICINE HAT   PTSUNNY   37  28  70 SW14G20   30.31F WCI  29
MILK RIVER       N/A     45  28  53 W17         N/A
ONEFOUR          N/A     28  21  74 S2          N/A
$$

REGIONAL REPORTS...SASKATCHEWAN

CITY           SKY/WX    TMP DP  RH WIND       PRES   REMARKS
SWIFT CURRENT  CLOUDY    30  18  59 S6        30.30F WCI  24
REGINA         PTSUNNY   19  18  93 W5        30.37R
SASKATOON      CLOUDY    21  16  79 SW5       30.34F
CYPRESS HILLS    N/A     41  19  42 W7          N/A
VAL MARIE        N/A     28  18  64 S5          N/A
ROCKGLEN         N/A     27  18  69 W6          N/A  WCI  20
ASSINIBOIA       N/A     30  23  74 SW9         N/A  WCI  22
$$



USA.gov is the U.S. government's official web portal to all federal, state and local government web resources and services.